Regional Weather Roundup
Issued by NWS

Home | Current Version | Previous Version | Graphics & Text | Print | Product List | Glossary On
Versions: 1 2 3 4 5 6 7 8 9 10 11 12 13 14 15 16 17 18 19 20 21 22 23 24 25 26 27 28 29 30 31 32 33 34 35 36 37 38 39 40 41 42 43 44 45 46 47 48 49 50
000
ASUS43 KFSD 142002
RWRSD

WEATHER ROUNDUP FOR SOUTH DAKOTA
NATIONAL WEATHER SERVICE SIOUX FALLS SD
200 PM CST THU DEC 14 2017

NOTE: "FAIR" INDICATES FEW OR NO CLOUDS BELOW 12,000 FEET WITH NO
SIGNIFICANT WEATHER AND/OR OBSTRUCTIONS TO VISIBILITY.


SDZ001>005-009-010-012>017-142100-
NORTHWEST AND NORTH CENTRAL SOUTH DAKOTA

CITY           SKY/WX    TMP DP  RH WIND       PRES   REMARKS
BUFFALO          N/A     33  28  81 NW22      30.12F WCI  21
FAITH            N/A     34  28  79 N22       30.15S WCI  22
MOBRIDGE       CLOUDY    36  27  69 N16       30.10S
$$

SDZ012>016-024>037-041>051-057-063-072>074-142100-
SOUTHWEST AND SOUTH CENTRAL SOUTH DAKOTA

CITY           SKY/WX    TMP DP  RH WIND       PRES   REMARKS
RAPID CTY ARPT CLOUDY    34  23  64 NW30G41   30.18F WCI  20
PIERRE         CLOUDY    34  31  88 N15       30.13R WCI  24
CUSTER         CLOUDY    26  13  57 N14G20    30.11S WCI  14
ELLSWORTH AFB  CLOUDY    34  24  68 NW29G37   30.17S WCI  20
PHILIP         CLOUDY    35  32  88 NW17      30.17S WCI  25
PINE RIDGE     CLOUDY    34  24  67 NW18G28   30.19R WCI  23
SPEARFISH      LGT RAIN  30  23  74 NW14G20   30.21F WCI  20
WINNER         CLOUDY    36  32  85 NW21      30.11S
$$

SDZ004>011-016>023-039-040-142100-
NORTHEAST SOUTH DAKOTA

CITY           SKY/WX    TMP DP  RH WIND       PRES   REMARKS
ABERDEEN       CLOUDY    29  28  96 N14       30.09R WCI  18
WATERTOWN      CLOUDY    29  28  96 NE17      30.01R WCI  17
BROOKINGS      FLURRIES  31  28  89 W9        30.01F WCI  23
$$

SDZ017-020-022-023-036>040-048>070-142100-
SOUTHEAST SOUTH DAKOTA

CITY           SKY/WX    TMP DP  RH WIND       PRES   REMARKS
SIOUX FALLS    FLURRIES  35  28  75 NW13      30.03S WCI  26
HURON          CLOUDY    35  31  85 N15       30.06S WCI  25
CHAMBERLAIN    FLURRIES  37  34  89 NW13G22   30.10R
MITCHELL       CLOUDY    36  30  79 NW14      30.07S
YANKTON        CLOUDY    36  25  64 NW9       30.06F
$$

ABBREVIATIONS USED IN REMARKS
   TC - TEMPERATURE IN CELSIUS
  WCI - WIND CHILL INDEX
   HX - HEAT INDEX
  VSB - VISIBILITY





USA.gov is the U.S. government's official web portal to all federal, state and local government web resources and services.